Regional Weather Roundup
Issued by NWS

Home | Current Version | Previous Version | Text Only | Print | Product List | Glossary Off
Versions: 1 2 3 4 5 6 7 8 9 10 11 12 13 14 15 16 17 18 19 20 21 22 23 24 25 26 27 28 29 30 31 32 33 34 35 36 37 38 39 40 41 42 43 44 45 46 47 48 49 50

000
ASUS43 KLMK 241410
RWRKY
KENTUCKY REGIONAL WEATHER ROUNDUP
NATIONAL WEATHER SERVICE LOUISVILLE KY
1000 AM EDT SUN MAY 24 2015

NOTE "FAIR" INDICATES FEW OR NO CLOUDS BELOW 12,000 FEET
WITH NO SIGNIFICANT WEATHER AND/OR OBSTRUCTIONS TO VISIBILITY.

KYZ001>023-026-027-061>063-070>075-241500-
WESTERN AND SOUTH CENTRAL KENTUCKY

CITY           SKY/WX    TMP DP  RH WIND       PRES   REMARKS
PADUCAH        MOSUNNY   76  58  53 S13G22    30.14F
HENDERSON      MOSUNNY   73  54  49 S15G22    30.18F
OWENSBORO      MOSUNNY   74  55  51 S15       30.22F
HOPKINSVILLE   MOSUNNY   71  55  58 SE10G20   30.21F
BOWLING GREEN  MOSUNNY   74  53  48 S12       30.27R
GLASGOW        PTSUNNY   74  52  46 S10G16    30.28S
$$

KYZ024-025-028>034-038-045-046-053-241500-
NORTH CENTRAL KENTUCKY

CITY           SKY/WX    TMP DP  RH WIND       PRES   REMARKS
LOUISVILLE/SDF PTSUNNY   74  52  46 S12       30.27R
LOUISVILLE/LOU MOSUNNY   73  53  49 S8        30.28R
FORT KNOX      MOSUNNY   73  53  49 S13G20    30.26R
$$

KYZ035>037-039>044-047>052-055>060-089>105-241500-
NORTHEAST KENTUCKY

CITY           SKY/WX    TMP DP  RH WIND       PRES   REMARKS
LEXINGTON      MOSUNNY   74  51  44 S17       30.31R
COVINGTON      PTSUNNY   73  53  49 S10G16    30.29S
FRANKFORT      MOSUNNY   74  50  42 SW10      30.28S
$$

KYZ054-064>069-076>088-106>120-241500-
SOUTHEAST KENTUCKY

CITY           SKY/WX    TMP DP  RH WIND       PRES   REMARKS
JACKSON        SUNNY     69  53  56 CALM      30.35S
LONDON         SUNNY     72  49  44 S8        30.34S
SOMERSET       MOSUNNY   68  50  52 S7        30.34S
MIDDLESBORO    SUNNY     69  52  55 E3        30.37F
MONTICELLO     SUNNY     72  53  51 SE10      30.35S
$$



USA.gov is the U.S. government's official web portal to all federal, state and local government web resources and services.